RH
90 92 91 94 94 93 93 92 93 93 93 94 97 98 97 96 97 98 97 98 96 95 97 98 99 97 99 100 93 97 81 46 34 52 63 27 1 6 6 12 15 20 27 24 27 26 25 30 30 29 31 31 33 34 29 28 24 18 28 33 31 29 25 26 23 15 11 12 11 11 11 9 10 7 8 31 57 72 84 93 94 91 89 88 89 94 96 96
89 91 91 92 93 94 93 93 93 93 94 95 97 97 96 96 97 98 99 99 99 96 98 100 97 98 101 95 91 91 73 54 61 72 47 6 3 9 2 11 22 25 25 24 28 26 27 31 30 32 34 35 33 30 27 26 21 23 31 31 29 27 22 20 18 13 10 12 11 11 12 8 8 8 9 26 53 77 94 98 97 99 97 91 89 92 94 94
88 89 91 91 91 92 93 93 93 93 95 94 94 95 96 96 96 96 98 99 100 98 99 99 96 100 97 89 86 77 71 70 67 50 16 -1 4 3 1 9 20 29 26 21 24 24 22 22 26 33 35 36 35 29 24 24 21 23 27 27 26 22 20 17 14 13 11 11 11 11 11 8 8 8 8 22 49 78 96 99 99 101 100 95 90 90 91 92
89 91 90 90 92 92 93 94 94 95 94 94 93 95 96 95 95 96 99 99 99 98 98 99 98 100 95 88 73 58 68 63 32 14 8 11 11 8 4 4 19 29 25 21 21 24 22 20 25 31 33 38 39 28 23 23 19 20 23 25 25 19 17 16 12 13 12 11 11 11 10 9 8 8 12 19 33 53 73 87 94 98 98 95 90 87 88 90
92 92 89 89 93 93 93 94 96 95 94 95 93 95 94 94 96 96 99 98 97 97 98 100 99 100 94 73 53 53 57 28 6 16 23 21 19 20 9 2 21 28 26 27 22 24 24 22 26 29 33 39 36 26 26 24 16 18 20 20 19 16 14 14 12 12 11 11 11 11 9 8 8 8 12 13 17 27 48 70 84 93 93 91 89 86 87 90
92 92 89 88 93 93 93 93 96 96 94 95 93 94 94 94 97 96 98 96 96 98 98 100 98 100 86 52 47 59 39 5 8 22 24 22 16 19 13 8 23 30 31 28 22 24 24 24 27 31 34 35 34 31 30 20 13 20 20 16 15 15 14 12 11 10 11 11 10 10 8 9 9 8 9 11 12 12 33 64 80 89 89 86 86 85 88 92
93 92 88 88 93 93 92 92 94 96 94 94 95 95 94 95 96 97 99 96 97 98 98 100 99 99 78 50 60 70 45 15 8 11 17 21 14 13 15 18 27 32 34 27 21 22 25 29 29 33 34 32 35 32 27 18 14 18 18 16 13 13 14 12 12 11 12 11 10 11 7 9 8 7 11 9 9 17 41 71 81 85 85 85 87 86 88 91
94 91 88 88 91 92 93 92 93 95 95 94 96 96 95 95 95 97 99 99 99 96 98 98 97 97 77 66 72 67 58 31 3 4 9 12 14 14 18 28 32 32 34 28 21 21 25 31 31 32 32 32 31 26 23 19 15 16 16 16 12 13 13 11 13 11 12 11 11 11 7 11 9 8 11 4 22 53 68 77 82 84 86 87 89 87 88 91
92 91 90 88 90 92 92 92 93 95 95 95 96 96 96 96 96 99 98 98 98 96 97 95 97 93 76 85 76 42 35 19 0 5 3 6 14 14 18 28 34 34 34 28 20 21 24 28 32 32 31 31 27 22 20 17 19 18 14 14 12 12 11 10 11 10 12 11 11 11 8 12 10 10 9 8 45 78 76 79 85 86 89 90 89 88 89 92
90 91 89 85 89 92 91 93 93 95 97 94 96 98 96 97 99 99 98 98 98 97 96 95 99 90 75 85 62 15 12 15 15 17 6 9 16 18 21 24 33 35 30 27 21 20 23 28 32 29 29 29 24 22 20 17 19 16 12 14 12 12 11 10 10 10 12 10 12 10 9 13 9 12 7 16 63 82 77 87 87 87 92 90 88 89 90 92
91 91 88 85 89 92 92 92 91 96 99 94 97 99 97 98 99 99 99 98 98 96 98 98 96 90 85 91 61 10 8 24 31 31 22 18 18 22 24 22 30 31 27 28 22 17 19 26 31 28 27 25 18 17 19 17 16 11 11 12 11 12 10 11 10 11 12 9 13 10 10 12 8 13 6 19 68 82 82 91 87 89 92 89 90 90 91 92
92 91 91 89 90 92 93 93 93 96 98 97 98 98 98 99 99 100 99 98 99 96 99 101 95 94 95 96 70 21 12 31 27 22 28 28 22 21 23 23 22 22 23 26 24 18 15 22 28 29 29 25 18 15 13 14 12 10 12 12 14 13 10 11 11 12 12 9 12 10 10 12 10 12 9 33 75 82 85 92 88 91 91 91 92 92 94 92
90 91 92 91 92 93 93 93 94 97 97 95 95 98 99 98 99 97 95 95 96 97 101 99 92 94 93 72 43 12 9 23 15 8 17 23 26 25 24 24 19 18 19 20 23 19 14 20 27 31 28 22 20 15 11 12 12 12 13 11 14 15 13 11 11 11 10 10 12 10 12 16 13 12 14 47 83 82 87 92 88 92 92 93 93 92 97 94
88 89 91 88 88 92 93 92 94 98 97 94 95 99 98 100 100 87 78 75 79 94 101 100 94 96 98 63 17 4 5 7 8 7 7 11 23 30 28 26 25 23 22 21 21 17 16 21 26 27 21 18 17 12 13 15 16 15 12 16 17 15 15 13 13 12 7 10 12 8 15 16 11 12 10 36 76 82 87 91 88 93 93 93 95 94 96 96
87 88 89 84 85 91 91 90 95 97 95 97 97 97 100 99 86 66 55 53 64 89 99 100 99 97 98 64 16 8 15 19 19 8 5 10 19 29 29 28 29 26 25 24 22 20 19 20 22 21 16 16 14 14 21 20 25 24 13 27 32 15 16 16 13 14 7 9 11 7 16 15 10 13 6 27 73 82 81 90 87 92 95 93 95 94 96 97
84 86 89 87 87 90 90 91 95 95 95 97 96 100 100 82 61 46 43 52 69 90 98 96 97 98 80 44 17 13 19 29 26 9 6 9 13 23 25 26 27 24 24 21 21 21 19 19 19 19 17 15 16 24 31 24 34 42 26 31 35 17 17 16 10 14 10 8 10 8 14 14 11 14 9 28 73 82 77 88 88 89 94 94 95 95 96 97
85 84 91 91 87 89 91 90 92 95 95 94 99 100 75 51 49 44 40 56 76 86 91 88 91 97 65 23 18 22 20 21 17 12 11 7 10 18 21 23 23 21 21 17 18 19 18 20 19 22 24 21 23 26 30 25 30 45 38 31 32 22 18 17 13 13 10 9 10 9 12 12 11 14 10 18 54 77 79 83 85 88 92 93 95 96 96 96
91 85 90 93 88 89 90 90 93 95 94 96 103 85 52 48 54 53 55 69 83 80 81 91 89 74 43 22 23 23 21 19 14 16 15 10 13 18 20 21 22 22 22 19 20 20 20 24 24 28 27 20 23 24 29 31 27 36 35 27 30 26 20 19 16 13 11 10 10 11 13 12 10 12 12 13 33 58 70 79 82 84 90 94 95 96 96 95
93 89 92 93 90 90 90 92 94 95 94 97 97 70 57 81 78 68 77 82 86 62 46 76 79 43 24 24 22 17 19 18 15 17 17 17 17 22 21 19 22 25 26 27 27 24 24 26 26 29 28 23 24 22 25 28 27 32 29 25 27 23 21 19 16 14 12 11 13 13 12 12 11 10 13 19 38 58 66 77 81 81 87 90 92 95 95 95
92 93 94 94 93 92 91 94 95 97 96 98 100 72 60 93 98 87 88 87 86 56 33 59 67 41 28 25 22 21 22 19 16 15 17 20 19 24 23 19 23 25 29 34 31 29 27 27 30 31 33 32 28 24 21 22 23 24 21 22 22 18 19 17 15 15 13 14 15 13 12 13 11 14 20 22 42 70 79 81 81 78 82 84 88 94 94 94
92 93 94 93 93 92 93 97 96 96 96 97 103 84 62 76 81 78 84 83 76 64 55 56 53 46 31 22 25 27 26 26 22 16 16 20 21 26 26 23 27 29 33 34 32 30 26 33 39 34 31 30 30 32 26 21 21 18 18 20 20 20 20 15 15 16 15 16 15 15 15 12 12 23 34 29 31 51 67 77 80 76 77 79 83 90 94 93
92 94 93 92 92 92 94 97 96 98 100 97 100 96 75 55 43 44 54 55 50 56 62 52 47 48 34 28 29 27 31 35 30 19 14 19 23 27 28 27 30 34 34 32 33 33 31 40 40 31 30 27 30 37 31 26 26 24 22 22 23 24 21 20 24 22 18 17 18 17 12 13 25 34 40 42 43 50 55 62 71 74 75 75 78 88 94 95
93 94 92 91 93 93 95 97 96 93 90 90 99 98 67 34 33 45 43 40 40 44 54 56 53 48 40 38 31 30 37 38 33 22 12 18 25 25 27 29 30 33 34 34 37 40 40 41 33 28 30 26 27 33 32 29 30 33 28 23 26 25 21 26 32 26 20 22 24 23 22 29 40 41 43 49 56 65 65 64 69 72 73 73 75 86 94 95
92 92 91 92 92 95 97 92 86 80 75 85 94 78 50 39 53 61 48 48 52 44 44 49 48 45 42 36 30 34 39 34 30 22 13 17 24 24 25 28 31 32 34 35 38 40 37 31 27 28 30 27 26 30 32 28 29 38 34 25 24 23 24 27 29 30 32 34 31 31 35 38 41 47 53 57 63 73 76 78 82 81 80 79 78 81 87 91
91 91 92 91 91 95 95 86 84 85 81 84 78 58 52 58 64 61 54 64 68 51 41 41 43 42 34 30 31 32 33 32 28 19 13 15 20 23 23 23 29 34 34 34 37 39 34 28 26 28 28 27 26 29 35 32 30 34 34 29 21 20 26 25 28 39 42 34 25 28 32 28 42 61 58 57 74 86 85 87 90 91 91 93 92 84 79 85
91 93 91 91 93 95 91 87 92 92 81 71 60 54 56 58 61 59 60 76 76 52 36 36 37 31 25 31 33 29 30 31 24 17 13 14 17 19 20 21 25 31 33 33 36 38 34 28 26 28 29 28 26 28 32 32 31 30 34 33 22 21 27 25 27 34 36 30 26 34 34 26 44 65 58 58 81 93 93 93 91 92 93 94 99 95 87 91
91 92 91 93 93 94 95 94 95 89 72 56 51 55 52 53 60 54 55 73 65 40 31 30 25 20 23 29 26 28 34 28 19 14 13 15 14 14 20 22 22 24 24 29 36 36 32 29 28 29 28 28 28 29 29 29 30 32 36 34 26 24 25 28 30 28 31 32 33 45 44 34 46 64 64 67 88 98 97 97 92 91 92 90 94 95 95 98
92 90 92 94 92 97 100 95 97 91 67 50 52 54 46 52 62 56 68 75 45 25 28 26 21 17 20 26 23 24 28 24 21 18 13 14 13 14 20 21 23 23 20 29 38 35 32 32 32 30 28 29 28 27 27 24 25 31 33 27 25 22 21 28 29 33 45 34 27 42 43 34 45 66 76 79 93 101 98 100 98 92 92 90 91 91 90 92
92 90 93 93 92 97 96 96 100 82 55 51 56 49 46 57 59 59 77 72 34 20 23 20 20 19 21 25 23 19 17 18 22 19 13 13 13 14 18 18 20 21 17 25 33 30 26 27 28 27 29 29 25 23 24 21 21 25 25 22 27 31 34 40 34 35 47 36 29 41 42 45 59 75 89 91 95 100 98 99 98 94 93 92 92 91 89 89
90 91 93 93 95 96 95 97 83 54 50 63 55 45 53 61 60 69 75 56 33 24 20 20 20 20 24 26 24 21 17 16 17 17 14 14 15 14 15 17 21 25 24 23 27 28 23 24 25 23 25 25 21 22 21 18 18 18 21 19 26 40 49 62 62 46 37 37 46 50 43 55 73 82 93 97 96 98 98 99 98 97 96 92 92 92 91 92
90 92 93 95 96 97 99 90 66 58 67 64 50 52 62 61 67 83 67 36 35 31 18 22 22 20 25 24 23 22 17 15 16 18 19 17 19 19 20 23 24 29 31 25 29 34 24 19 22 20 23 21 18 22 19 18 19 19 24 22 23 39 46 55 63 49 36 41 53 56 50 57 72 83 94 98 97 96 96 100 100 99 97 94 93 92 90 89
93 92 91 93 94 98 98 77 62 68 60 47 62 73 69 66 73 84 65 40 50 48 27 22 21 21 23 20 21 21 18 19 17 20 23 22 25 26 29 36 33 30 36 36 38 41 31 24 22 18 21 20 17 23 20 19 22 22 28 31 29 37 36 38 49 47 44 43 42 50 60 74 86 90 96 99 97 96 95 97 96 95 95 93 91 91 88 87
92 92 92 90 92 97 85 58 51 58 48 55 83 79 69 77 75 72 65 50 53 57 44 30 20 19 21 21 21 18 17 20 18 21 23 24 29 27 27 37 36 32 41 47 43 37 33 32 26 16 17 19 18 24 23 23 25 22 27 33 35 41 37 35 47 49 43 39 37 42 58 84 99 93 94 100 97 93 90 88 88 89 90 91 90 88 86 86
92 94 92 86 86 81 64 54 59 66 70 79 80 68 73 86 77 65 57 46 53 63 50 29 19 19 20 22 21 18 21 22 17 20 25 28 33 34 30 28 29 31 35 41 41 37 37 40 32 20 18 19 17 20 23 26 25 22 27 29 32 47 49 42 48 47 36 38 45 49 59 82 98 95 95 96 89 85 84 82 83 84 86 89 88 86 85 86
93 93 91 87 79 58 44 56 68 76 88 86 73 75 84 81 73 67 48 35 49 59 41 19 19 24 21 21 22 17 23 27 19 21 29 32 35 39 37 28 27 31 31 39 45 37 33 40 38 25 19 18 17 19 21 22 24 26 27 26 26 38 49 52 56 56 52 51 57 68 78 86 93 94 92 89 84 82 83 82 83 83 85 89 89 87 87 89
95 95 93 93 78 48 37 50 65 81 93 82 72 79 85 74 66 62 45 32 39 43 30 19 21 28 27 26 25 19 24 32 26 25 29 28 30 34 31 26 25 25 30 44 52 40 30 38 41 26 17 19 18 19 20 17 26 32 24 24 27 27 36 44 44 52 61 52 49 75 98 97 94 93 90 88 88 88 86 85 86 86 86 88 90 88 86 89
98 98 97 95 75 52 47 49 61 85 90 79 77 78 78 70 55 50 43 36 37 31 25 27 26 30 34 32 30 24 25 28 24 27 30 27 30 31 26 26 24 20 24 32 41 44 37 38 42 26 13 19 19 17 19 17 24 31 23 23 26 22 32 43 44 54 60 45 49 81 102 98 91 92 91 90 91 93 91 89 89 88 87 89 89 86 85 86
100 99 100 89 65 60 66 57 63 88 90 86 90 82 74 67 55 50 43 33 33 26 24 33 30 28 34 36 34 26 24 29 28 27 29 32 42 40 36 39 32 23 23 20 27 41 39 35 40 33 18 18 22 21 20 19 19 21 20 22 24 27 37 38 40 48 44 43 65 85 92 95 96 95 93 91 93 95 92 91 92 91 90 90 89 87 86 85
99 100 99 79 59 65 71 63 70 88 85 86 94 82 64 58 51 46 37 28 29 26 25 32 31 29 32 34 34 26 24 30 29 27 29 40 53 47 43 49 41 32 26 17 25 41 44 39 37 36 27 22 33 38 31 27 22 17 25 34 38 46 47 35 37 44 36 50 83 89 83 91 97 95 91 88 92 94 93 95 96 93 90 89 88 88 87 86
98 100 96 80 70 69 65 64 76 84 79 82 89 75 54 45 40 34 28 24 24 21 21 26 31 33 31 30 31 27 27 28 32 46 53 55 57 48 44 47 43 42 30 17 29 38 34 35 37 43 43 40 51 57 48 38 24 21 38 47 42 42 40 34 38 41 39 57 86 92 88 90 92 94 92 91 95 95 94 96 96 92 88 87 88 87 85 84
97 97 94 84 75 67 63 71 79 82 84 82 72 56 41 37 35 29 24 23 20 16 16 21 27 31 29 33 32 31 42 48 53 71 71 62 64 55 48 48 45 47 37 26 39 41 30 37 52 64 69 65 62 59 56 49 36 43 61 59 48 41 38 38 38 42 56 70 76 81 90 96 96 96 93 94 97 94 93 93 92 89 85 85 87 83 82 83
99 98 94 83 69 64 68 78 83 82 84 77 60 45 37 35 32 26 22 22 16 13 18 21 24 28 28 31 33 39 55 60 63 75 71 63 67 58 50 54 52 53 53 45 50 57 57 63 69 69 66 64 58 51 55 57 54 63 73 76 76 63 51 54 52 53 66 75 76 82 92 99 98 94 91 92 92 89 88 87 88 88 85 84 84 81 80 80
98 97 92 74 64 68 69 67 72 76 76 70 52 38 33 32 30 25 25 25 18 17 24 24 23 29 29 27 31 41 53 57 59 68 69 65 63 55 56 64 61 60 62 58 55 59 66 72 73 65 56 56 55 48 50 58 65 74 78 86 92 77 66 73 77 77 75 75 85 92 94 99 98 92 88 87 87 87 86 84 85 86 84 83 83 82 81 81
95 98 94 75 65 74 74 69 74 79 75 67 55 44 39 35 33 32 31 28 23 25 31 27 24 28 30 30 34 39 46 55 57 57 63 67 59 53 59 64 65 66 63 57 53 50 51 61 71 69 61 61 59 49 47 57 73 87 91 92 90 85 80 70 70 82 77 70 83 89 91 100 99 91 88 85 86 89 87 84 83 85 85 84 83 82 81 81
95 96 95 82 70 75 82 83 86 90 88 82 79 75 63 49 38 34 34 28 23 28 32 28 25 28 32 38 44 46 48 55 58 55 62 68 58 50 56 63 67 73 72 69 68 66 69 78 83 77 69 68 71 69 66 70 81 91 96 94 91 93 85 60 55 76 79 76 88 91 93 102 98 91 91 89 89 91 89 85 82 82 83 82 83 83 81 82
97 94 95 89 76 75 83 82 78 88 97 92 87 80 68 57 41 28 29 26 21 28 32 28 29 32 36 45 53 56 54 53 56 59 66 72 62 50 54 64 70 71 70 74 78 81 87 92 89 83 75 72 82 89 84 85 93 97 97 97 97 98 92 75 67 75 80 89 99 95 93 100 100 95 94 92 92 93 91 89 86 85 84 83 83 82 81 81
95 92 94 92 85 83 89 85 79 87 92 87 83 71 59 56 43 27 26 24 22 31 36 35 37 35 33 44 57 60 58 56 57 59 64 67 61 55 54 59 65 67 66 71 78 84 91 93 89 90 89 86 91 94 87 88 97 100 98 99 98 98 99 93 85 78 76 84 95 95 93 97 101 98 95 94 93 93 92 90 88 86 83 83 83 82 81 81
94 93 91 87 88 90 90 86 84 87 84 82 86 73 54 50 42 30 30 29 29 37 44 46 49 44 38 45 58 62 60 63 63 61 63 64 63 65 61 52 53 62 68 75 80 84 93 95 88 89 94 93 92 91 88 88 91 92 95 98 98 98 99 99 98 95 89 86 91 95 94 97 101 99 96 96 93 92 93 88 85 84 82 82 83 84 84 83
95 97 93 87 87 90 89 81 80 84 83 86 90 75 54 48 42 33 34 41 41 42 50 55 52 51 50 53 66 70 65 70 68 57 59 64 65 70 68 58 53 57 68 79 81 81 90 93 87 87 94 94 90 89 87 86 88 90 90 91 92 94 94 95 97 97 95 95 96 97 97 99 100 97 95 94 89 87 88 85 84 85 84 85 86 86 88 86
98 98 97 95 93 95 95 86 83 87 85 86 85 70 54 48 42 34 35 45 47 39 45 52 46 44 46 48 61 67 64 70 67 53 57 64 61 64 66 61 57 58 67 79 76 72 80 87 83 83 94 97 92 90 88 87 91 95 93 91 91 93 94 95 96 93 94 99 97 96 99 101 97 94 94 91 86 85 86 87 90 90 88 89 90 89 89 88
98 96 95 99 99 97 94 87 84 82 75 72 65 53 50 47 39 34 32 38 46 42 43 49 46 43 43 43 50 52 51 58 53 45 55 59 52 53 54 54 60 64 66 70 72 74 83 91 86 84 96 99 91 89 90 86 86 94 99 99 97 98 98 98 98 96 94 96 95 94 99 101 98 94 93 90 89 91 92 92 92 92 91 92 93 93 92 89
98 94 93 100 99 94 91 83 76 69 66 69 59 46 50 49 41 45 43 34 38 43 45 48 46 46 48 45 41 39 42 47 42 37 44 44 40 44 46 49 62 69 67 67 73 78 82 87 88 87 94 97 90 90 92 87 86 93 99 98 96 97 97 96 98 99 97 95 96 97 99 99 96 93 94 96 96 97 98 97 95 95 95 94 93 94 93 89
Wind_Speed
13 13 13 13 13 13 13 13 13 13 12 13 13 13 13 12 13 12 12 13 12 13 14 14 13 14 14 14 14 15 17 19 21 15 11 23 25 17 14 10 7 14 12 7 6 5 4 4 7 7 6 3 1 1 2 3 2 2 2 2 2 3 4 4 6 4 2 3 6 7 3 5 3 4 2 4 9 9 10 9 8 10 9 11 18 26 30 29
13 13 13 13 13 13 13 13 13 13 13 13 13 13 13 13 13 13 13 13 12 13 13 13 14 14 14 14 14 15 18 20 18 15 24 30 24 20 18 10 10 14 15 12 9 9 6 3 6 6 4 2 1 2 2 2 3 3 3 2 4 4 5 5 5 5 3 4 7 8 5 4 3 1 2 4 3 5 10 7 8 13 11 13 17 23 26 28
13 13 14 13 14 14 13 14 14 14 13 13 13 13 14 13 14 13 13 13 13 13 13 13 14 14 14 13 13 15 17 16 9 14 26 24 19 24 22 15 14 15 17 16 12 12 8 4 8 6 3 0 2 2 2 2 3 3 3 2 5 5 5 6 7 8 7 5 7 7 3 4 4 1 2 5 5 5 7 5 8 11 10 12 12 17 22 23
13 13 13 14 14 14 14 14 14 14 14 13 14 14 14 14 14 14 14 14 13 13 13 13 13 14 14 13 13 14 13 8 4 10 14 11 13 18 20 21 18 15 16 13 9 12 8 5 8 5 3 1 3 0 2 3 3 2 4 5 5 4 5 8 8 8 7 3 4 7 3 3 5 3 3 6 6 1 5 7 9 14 14 14 13 13 17 17
13 13 14 14 14 14 14 14 15 15 14 14 14 14 14 14 14 14 14 14 14 13 14 13 13 14 13 13 12 10 7 3 4 5 3 6 9 11 18 23 22 17 15 12 7 10 8 4 5 4 3 1 2 0 3 5 3 2 4 5 5 3 5 8 5 4 6 3 3 6 4 0 2 3 2 6 6 4 6 7 11 18 18 17 17 14 13 12
13 13 14 14 14 14 14 14 15 15 15 15 15 15 15 15 14 15 14 14 14 14 14 13 13 13 14 13 7 5 3 2 6 4 3 3 4 9 17 24 24 18 16 13 7 10 7 3 4 3 3 2 3 4 4 4 3 2 4 3 6 5 6 7 2 4 5 3 4 3 3 0 3 3 2 2 5 6 6 8 12 16 17 18 17 14 13 12
13 13 14 14 14 15 14 15 15 15 15 15 15 15 15 15 15 15 14 14 14 14 14 13 13 13 13 9 2 2 1 6 15 9 5 6 5 5 17 24 23 19 17 13 9 9 6 5 4 4 4 2 4 6 5 3 3 4 5 5 7 6 8 9 6 6 4 4 8 3 0 1 1 3 3 3 3 3 4 7 13 13 14 15 14 13 14 14
12 13 13 14 14 15 14 15 15 15 16 15 16 16 15 16 15 15 14 14 14 13 13 13 13 12 11 7 1 2 0 14 25 19 15 10 3 6 21 24 21 20 19 16 12 8 6 7 6 4 4 4 4 4 4 2 1 4 6 6 5 5 8 10 8 7 6 5 7 3 2 5 6 2 1 5 2 4 6 10 14 13 12 12 13 12 12 12
14 13 13 14 14 15 15 15 15 16 16 16 16 16 16 16 16 16 15 14 14 13 13 12 12 10 8 5 1 2 6 19 24 19 19 16 6 11 22 21 21 20 17 17 14 10 7 6 6 5 4 5 4 3 4 3 3 6 7 6 5 7 9 8 6 7 7 6 3 3 5 8 5 2 2 4 3 6 9 12 13 14 13 11 11 11 10 11
15 14 15 15 15 14 15 15 15 16 16 16 17 17 17 17 16 16 15 14 13 13 13 11 10 8 6 4 1 3 8 12 13 13 15 13 11 15 20 19 21 21 15 13 14 13 9 7 6 4 3 3 4 4 4 5 4 5 6 5 7 10 9 5 5 7 6 4 5 7 7 8 4 0 3 2 6 8 10 11 11 13 13 12 10 9 9 10
15 15 15 15 15 15 15 15 16 16 16 17 17 18 17 17 17 16 15 14 13 13 12 10 9 6 5 2 3 5 7 5 3 2 7 12 15 18 21 20 20 23 17 10 15 21 14 8 5 1 2 2 3 3 4 5 3 3 2 4 7 7 6 4 5 6 3 2 7 9 6 5 3 2 5 3 7 9 11 11 9 11 10 11 11 9 7 8
14 15 14 14 15 15 15 15 16 16 17 17 18 18 18 18 18 16 15 14 13 12 11 10 7 3 3 2 6 15 8 2 4 7 3 11 16 17 18 20 20 23 20 11 16 25 17 8 4 2 3 1 1 2 3 4 1 3 1 3 7 5 4 5 3 4 5 2 6 7 2 6 2 6 3 4 8 8 11 11 9 9 8 9 9 7 6 7
15 15 15 14 14 14 15 16 16 17 17 18 19 19 19 19 18 17 15 14 13 11 10 8 4 2 1 1 12 20 14 7 7 14 13 10 12 13 12 16 19 20 22 17 15 20 19 13 7 4 4 1 2 4 1 1 1 3 1 1 5 6 5 6 2 3 5 3 5 6 2 6 7 9 1 4 9 9 9 10 8 8 7 7 8 7 6 7
16 15 15 15 14 14 16 16 16 17 18 19 19 20 20 20 19 17 15 14 11 9 7 4 3 2 2 6 14 15 15 16 18 20 17 12 12 12 10 13 17 19 22 18 10 13 19 16 7 2 3 3 3 5 3 5 2 2 1 1 2 1 4 8 2 5 4 2 3 6 2 7 10 9 3 6 8 11 10 9 8 7 7 7 7 7 7 7
15 15 15 15 14 15 15 16 17 17 18 19 20 21 22 21 20 17 14 12 8 5 5 3 5 3 1 9 15 10 9 13 18 23 18 13 13 9 10 13 16 18 20 18 11 8 11 9 5 2 4 3 1 2 3 4 3 2 1 2 3 1 5 8 3 4 5 2 0 6 2 6 10 8 2 7 9 11 10 10 9 9 9 9 7 7 7 6
16 16 15 15 14 14 15 16 17 17 18 20 21 22 23 21 19 15 12 9 4 4 4 3 7 5 1 6 8 6 8 10 15 19 18 16 16 12 10 12 12 14 16 16 13 9 4 1 2 3 2 2 4 3 2 4 4 4 1 2 3 1 3 5 4 2 5 2 2 3 3 4 5 5 2 5 9 10 10 10 11 10 10 9 8 7 6 6
17 16 15 15 15 14 15 16 16 17 19 20 22 25 23 19 16 12 9 6 3 4 5 3 5 5 4 8 7 7 8 12 12 12 17 20 19 15 9 8 7 9 10 10 8 5 2 0 2 1 1 1 3 4 2 2 4 3 2 0 3 1 2 2 4 5 2 3 2 2 3 6 7 5 4 2 7 9 9 11 11 10 8 8 7 6 7 7
17 17 15 15 15 15 15 16 16 17 18 20 23 25 20 11 6 5 5 7 5 3 3 2 3 3 6 10 7 6 5 5 12 11 15 20 20 18 12 6 5 6 4 2 1 2 1 0 0 1 1 1 3 5 3 5 4 3 0 1 2 3 2 2 3 4 3 2 4 2 4 10 11 8 5 2 3 8 10 9 9 8 8 7 7 7 7 8
17 16 15 15 15 15 15 15 16 17 18 20 22 19 8 3 3 3 6 8 6 3 3 4 5 3 4 8 7 8 9 3 9 10 13 17 16 16 12 6 5 7 5 1 1 3 3 1 2 3 2 2 4 5 7 7 6 7 4 4 1 2 3 4 4 6 2 1 6 7 7 9 11 10 7 6 4 4 7 6 6 6 6 6 6 7 8 8
16 15 14 15 15 15 15 16 16 16 17 19 21 15 2 3 2 1 3 5 6 5 4 5 9 5 5 4 2 4 8 3 3 7 14 18 14 10 7 4 4 4 4 4 4 3 3 4 3 5 6 6 6 7 7 5 6 5 2 1 1 2 4 5 4 6 3 4 7 9 9 9 9 6 7 7 6 3 2 7 7 6 5 4 5 6 8 8
16 14 14 14 15 16 15 16 16 16 15 16 16 8 1 1 1 0 1 6 11 12 11 8 12 11 10 8 6 9 6 3 3 2 13 18 14 8 4 3 4 2 3 5 4 1 3 5 6 7 9 8 7 7 6 4 5 2 1 1 3 2 4 6 4 7 2 5 4 4 7 9 5 5 9 7 7 7 4 3 6 7 7 6 6 7 6 3
15 14 14 15 15 15 16 17 16 16 16 16 11 4 5 4 1 5 5 4 9 14 17 13 11 14 16 17 16 8 3 4 5 4 9 13 9 6 3 4 5 4 2 4 3 2 1 4 8 8 7 5 4 4 5 4 4 3 2 2 3 2 4 6 4 6 1 4 3 2 6 8 2 7 7 8 8 7 7 3 2 2 4 4 5 5 4 3
15 14 14 15 16 16 16 17 18 19 18 14 8 8 7 4 5 14 8 2 6 9 13 13 12 12 12 14 16 8 4 5 5 4 9 11 5 6 5 5 6 4 3 5 5 3 2 4 8 7 6 6 3 2 6 4 3 3 3 3 3 2 1 3 4 6 4 1 2 6 5 3 5 6 6 9 7 8 10 8 8 6 4 5 3 3 5 5
15 14 14 15 16 16 16 19 20 17 13 11 14 14 9 10 15 16 5 2 5 5 8 13 10 8 11 10 9 10 6 5 4 4 10 12 5 4 6 5 6 4 3 6 7 6 5 5 4 7 7 7 5 2 6 5 1 1 4 5 3 3 3 4 4 5 5 5 3 7 4 5 6 6 7 8 8 11 12 12 13 11 9 8 5 2 3 5
15 14 14 15 15 16 18 19 14 7 7 9 14 11 10 15 17 10 2 1 4 4 4 9 6 6 11 9 9 10 4 3 5 4 9 13 8 5 4 3 4 4 5 6 7 5 8 5 4 7 5 6 6 4 5 7 3 2 4 8 8 6 5 4 3 4 5 5 4 6 5 2 4 6 6 6 9 11 11 13 14 12 12 11 9 7 3 2
15 14 14 14 14 16 16 10 5 8 11 9 9 10 13 17 13 2 4 3 3 3 2 6 5 7 10 8 8 6 2 3 6 7 9 12 12 7 4 2 2 4 6 5 4 3 4 4 5 7 6 6 6 5 5 7 5 1 5 9 8 6 5 3 2 4 3 1 2 4 6 2 4 6 8 7 7 9 11 14 14 12 12 11 9 9 7 5
14 14 14 14 14 14 11 6 9 13 8 6 9 14 17 18 8 5 3 3 3 3 4 3 3 9 10 9 11 7 2 3 2 5 9 13 10 5 5 4 2 4 4 4 2 3 3 5 5 6 6 6 5 4 6 8 7 3 7 7 7 6 7 5 5 4 2 3 3 4 4 4 3 4 7 7 4 8 12 14 14 12 12 12 11 11 10 9
14 14 14 14 13 12 10 12 14 10 6 8 15 17 19 17 3 5 1 1 2 2 4 2 3 8 6 8 13 7 4 4 5 3 9 17 11 5 5 6 5 6 4 5 3 4 3 6 7 7 5 4 5 6 8 10 6 7 7 6 7 7 7 5 6 4 0 2 2 6 3 5 3 4 6 7 5 9 11 11 12 12 12 12 12 12 12 11
14 14 14 13 14 13 13 13 12 9 9 14 18 20 20 12 1 3 1 2 2 1 3 2 4 5 3 7 11 7 2 3 5 2 6 12 8 4 5 6 7 7 4 5 6 4 2 6 8 7 5 5 7 7 10 12 6 6 5 5 4 4 4 4 5 4 3 4 3 7 1 5 2 5 5 5 4 7 7 8 10 11 12 12 12 12 12 11
14 14 13 13 13 13 11 12 18 15 13 16 19 22 16 4 3 2 3 3 2 1 1 2 3 4 7 9 8 7 3 2 3 3 5 5 4 2 3 3 6 5 2 1 4 4 3 2 4 5 5 7 7 5 10 14 9 4 6 5 5 5 5 4 3 4 4 1 5 7 1 5 1 3 3 2 4 5 5 6 8 10 13 13 12 12 12 11
14 14 13 13 13 12 9 9 12 10 9 15 21 18 7 1 1 2 4 2 1 0 1 2 3 5 11 11 7 7 5 2 3 6 5 4 4 2 2 3 3 3 1 2 2 4 5 2 2 3 6 5 4 4 6 9 6 5 5 4 4 3 4 4 4 4 4 2 6 4 3 6 3 2 2 3 6 6 5 6 8 11 12 11 11 12 12 11
14 15 15 15 15 14 13 9 4 5 9 17 18 8 2 2 1 4 3 3 1 1 1 3 4 5 10 10 8 8 5 3 4 6 6 5 5 4 2 3 4 3 2 4 2 4 4 3 3 4 5 5 5 3 2 2 4 5 4 5 5 1 2 0 2 0 3 2 3 3 2 5 2 1 2 5 7 6 6 7 8 10 10 10 11 11 11 11
16 18 19 19 18 20 23 18 13 14 17 17 9 2 3 2 3 4 3 3 2 1 3 1 3 5 9 8 6 7 6 3 4 5 6 6 6 6 3 2 6 5 3 4 2 2 3 5 4 2 4 4 7 5 3 3 3 5 5 5 5 3 2 2 2 1 2 2 3 4 0 2 1 0 2 5 6 5 7 8 8 10 10 9 10 10 11 12
18 20 23 23 22 24 25 21 20 18 16 11 2 3 2 2 4 3 2 2 3 1 6 2 4 5 8 8 6 7 5 3 5 6 5 4 5 5 4 1 4 5 3 3 2 3 2 3 3 4 3 3 8 7 7 7 4 4 5 6 6 5 4 3 3 3 3 2 1 2 1 2 2 1 4 6 6 7 8 8 9 9 8 6 7 10 11 12
21 21 22 21 21 22 21 20 19 14 8 4 3 2 3 3 3 1 2 1 4 2 8 4 5 6 6 5 5 8 5 2 4 6 5 5 5 6 5 4 5 4 4 3 2 2 5 4 7 4 2 5 8 5 6 8 3 1 2 6 3 5 6 3 3 5 5 3 2 3 2 1 2 3 5 5 7 8 8 9 9 9 9 7 7 9 9 9
21 20 16 16 19 16 12 15 16 12 6 1 3 2 4 3 2 1 1 2 3 4 9 6 2 6 5 2 3 6 4 3 4 4 3 5 4 4 5 5 5 6 5 4 3 1 4 3 7 3 2 4 7 6 4 5 4 1 2 4 3 4 8 5 2 1 3 4 1 1 3 2 1 3 4 4 7 8 7 8 9 9 10 10 9 9 9 8
18 15 10 14 16 9 7 13 18 14 5 2 3 3 3 3 3 3 2 2 3 6 5 2 2 4 5 3 3 6 4 3 4 4 3 3 2 2 3 2 3 7 8 5 2 2 4 2 6 2 4 4 2 4 2 2 5 4 3 5 2 3 5 4 2 2 4 4 1 2 3 3 1 1 1 4 7 7 7 8 8 9 10 10 9 10 11 11
16 11 9 12 10 7 10 17 21 12 3 2 2 2 3 3 4 5 5 6 7 5 2 2 2 3 5 5 3 5 7 4 4 4 3 2 1 1 2 1 1 5 8 7 2 2 3 0 6 3 3 2 4 6 3 4 3 5 4 3 4 3 1 1 3 2 2 3 0 3 2 1 1 1 0 2 4 6 6 7 8 9 9 8 9 10 11 11
10 5 5 4 5 11 16 21 17 5 3 2 2 2 3 3 5 7 7 7 6 4 2 2 2 3 4 6 3 5 7 6 5 4 2 1 1 1 1 1 1 2 6 9 5 2 3 3 4 5 3 1 4 4 2 3 3 3 3 3 2 3 4 2 2 3 4 3 2 2 1 1 1 1 1 2 3 6 7 6 8 8 8 8 8 9 9 9
5 2 2 1 8 16 21 18 7 2 2 3 3 2 3 3 6 10 10 8 4 3 3 1 2 2 1 3 3 4 6 6 5 3 1 2 2 1 1 1 1 0 4 8 5 1 2 3 1 5 6 1 1 1 4 6 3 2 4 3 2 2 2 2 1 2 4 4 4 3 1 2 2 1 3 4 4 7 8 7 7 7 8 8 7 8 9 9
3 1 0 4 13 22 21 9 1 1 2 1 2 2 3 4 6 11 12 9 4 3 2 1 2 2 2 2 2 2 3 4 3 3 2 1 3 1 1 1 2 1 4 5 3 1 2 2 2 2 4 4 1 4 2 5 6 4 3 3 2 2 3 4 1 1 3 4 4 5 3 2 1 2 6 7 7 8 9 8 7 7 7 7 7 8 9 9
2 1 0 9 22 22 11 2 0 2 1 1 2 3 4 5 6 7 10 7 3 2 1 2 2 1 1 2 3 3 4 4 3 3 3 2 2 2 2 2 1 2 5 4 2 2 3 4 4 2 2 2 2 5 2 6 9 7 4 3 3 2 4 5 4 3 3 3 2 4 3 1 3 5 7 8 7 8 8 7 6 5 6 6 7 8 9 9
1 1 0 14 24 13 3 2 1 1 1 2 3 5 5 5 5 5 7 6 2 1 3 3 2 2 3 3 4 4 4 4 4 3 4 2 2 2 5 4 2 3 4 3 1 1 3 4 4 2 2 2 4 5 3 7 8 7 5 3 2 2 2 5 5 4 4 2 2 4 2 2 3 4 6 8 8 8 7 6 6 4 4 6 7 7 8 9
1 1 1 12 18 4 3 3 2 1 3 2 3 4 4 4 5 5 6 5 3 1 2 2 3 3 3 3 4 4 3 4 4 3 3 3 1 3 6 5 4 3 2 3 3 2 1 2 3 3 2 3 4 4 4 6 5 4 3 4 3 3 3 4 2 3 3 2 3 5 2 2 3 4 6 7 8 9 7 6 6 5 5 6 6 7 7 8
1 0 2 4 11 5 1 3 2 2 2 2 3 4 4 3 5 7 6 4 3 1 2 2 2 2 3 4 6 6 6 5 3 1 2 3 1 2 6 7 6 4 3 3 4 4 3 2 3 5 5 3 2 2 1 1 3 3 3 6 6 4 3 3 3 4 2 1 3 4 3 4 5 5 7 6 7 8 7 7 7 6 7 7 6 7 7 7
1 2 2 1 4 3 2 2 1 1 1 1 1 4 4 4 4 4 5 1 4 3 4 3 2 3 6 6 7 7 8 7 5 3 2 3 1 2 5 7 5 5 7 8 7 4 4 3 3 5 5 5 5 3 3 3 4 3 4 8 7 4 3 3 4 2 4 4 3 1 6 9 7 6 6 6 7 7 6 7 7 6 6 6 6 7 7 7
1 1 2 2 2 2 3 3 1 1 1 1 1 3 4 4 3 2 0 2 2 3 4 4 5 4 4 5 6 5 6 8 8 6 4 3 2 2 5 6 6 6 6 7 5 3 6 3 4 7 8 4 4 5 5 7 8 5 4 7 7 6 6 6 5 2 3 5 2 2 8 9 6 6 6 5 5 5 6 6 5 5 5 6 6 8 10 10
0 1 1 1 1 2 2 3 3 3 2 1 1 3 3 2 2 1 2 2 3 4 4 4 8 6 3 4 5 3 4 7 7 4 3 3 3 2 6 6 6 7 5 4 4 4 7 3 3 7 11 9 7 8 10 11 10 9 8 8 8 9 10 9 5 3 3 4 4 8 10 8 6 6 6 5 5 6 6 6 5 4 6 7 8 10 11 11
1 1 3 1 1 2 3 3 3 3 4 5 3 3 3 1 3 1 2 3 4 6 4 4 7 7 6 5 6 4 3 4 3 2 1 2 2 2 3 3 4 6 5 4 3 3 5 3 2 8 11 10 8 7 9 12 11 10 11 10 9 10 12 11 9 8 9 8 7 12 13 8 5 5 5 5 6 6 5 5 6 6 7 8 9 10 10 11
0 1 2 2 1 1 2 1 3 3 3 4 4 4 2 2 4 3 3 4 4 3 5 7 6 7 9 10 9 5 1 6 6 3 3 3 2 2 2 2 1 4 5 4 2 3 4 3 2 4 8 7 6 7 9 11 13 12 11 9 8 8 9 9 7 8 11 10 9 12 12 7 4 5 6 6 5 5 6 6 7 7 7 8 9 10 10 10
3 4 2 1 1 1 1 1 3 3 1 2 3 3 1 2 3 5 5 5 5 4 3 7 8 8 9 11 11 6 2 6 9 6 5 6 3 2 2 3 4 2 4 3 2 3 4 4 2 2 5 3 2 6 9 11 13 12 10 9 8 7 5 5 5 5 6 8 10 9 6 4 4 5 6 6 5 6 7 7 7 6 7 7 9 9 9 9
5 4 2 1 0 1 1 1 1 2 1 2 3 1 1 1 1 5 6 6 6 6 4 7 8 7 7 9 7 3 5 5 7 6 5 5 3 3 3 3 5 4 2 2 3 3 4 6 3 2 5 3 3 2 2 4 7 6 5 4 4 4 4 5 6 8 6 3 5 5 3 4 5 6 6 7 7 8 7 7 6 5 6 7 8 8 8 8
Wind_Direction
314 317 315 315 315 315 316 316 317 316 318 318 317 319 318 319 318 318 318 315 316 314 314 314 314 315 312 312 314 316 315 311 304 297 253 251 258 255 255 266 212 185 191 185 170 166 143 162 180 165 144 139 177 199 186 174 160 109 115 152 209 203 209 198 200 209 184 262 287 318 0 101 27 356 71 42 53 74 71 56 54 52 58 89 111 128 137 143
311 314 315 314 314 314 314 315 315 315 316 316 317 317 316 318 316 317 316 314 315 313 314 315 314 315 311 312 313 315 316 308 301 279 257 260 265 260 251 230 190 191 199 204 202 178 155 184 179 145 121 135 234 203 185 191 173 165 137 165 220 202 218 216 213 246 246 262 289 302 314 42 42 30 84 83 74 78 79 67 76 78 83 98 113 129 137 146
309 310 312 313 314 313 313 313 314 314 314 315 315 314 315 315 315 316 315 314 315 314 315 314 314 314 312 311 314 318 312 306 301 268 268 271 262 252 242 221 202 196 201 211 215 195 181 172 163 130 82 186 261 200 196 229 194 180 145 200 237 207 240 261 247 261 266 283 303 285 293 12 334 302 84 120 119 98 113 125 105 111 129 126 129 137 142 150
312 309 310 311 312 311 312 312 313 313 313 314 313 314 314 313 315 314 314 315 315 316 315 315 317 314 312 316 318 314 306 304 273 258 271 267 251 243 228 215 201 192 196 207 216 200 186 139 148 131 88 238 294 233 196 238 207 176 173 207 239 192 237 262 245 264 283 298 289 280 320 22 314 337 91 128 119 134 183 182 153 148 150 138 143 150 150 153
310 309 309 308 309 310 311 311 312 312 312 313 313 313 313 313 314 312 314 315 315 317 316 317 316 315 317 318 316 304 301 316 275 265 274 259 255 236 213 202 192 187 184 191 198 179 176 126 121 116 106 212 289 158 227 235 179 184 224 219 235 192 236 258 239 268 279 255 253 295 319 144 319 352 115 129 141 223 213 193 170 155 155 150 152 157 155 152
307 308 307 305 308 309 308 310 310 311 311 312 312 312 312 312 312 312 314 313 315 316 316 318 317 319 318 318 319 282 240 262 299 334 1 335 290 226 200 187 182 182 181 185 174 157 166 119 108 138 139 175 214 203 240 246 161 210 268 242 231 213 233 263 255 246 254 243 235 248 278 345 33 319 268 134 173 218 216 177 157 154 155 151 150 156 157 157
309 310 307 304 307 307 308 309 309 310 310 311 311 311 310 310 311 312 311 312 314 314 317 318 318 321 321 329 337 243 172 260 272 270 288 353 8 207 177 173 176 180 183 178 161 158 160 142 156 160 136 172 210 213 241 253 162 196 263 270 251 227 229 256 252 247 246 233 247 237 343 335 334 287 314 305 239 209 201 145 132 141 143 143 150 159 161 165
311 311 307 305 307 307 308 307 308 310 309 310 310 310 309 309 310 309 309 311 311 314 317 316 320 326 327 334 243 282 293 249 257 256 263 279 335 147 158 166 177 183 183 181 175 162 154 157 178 156 147 213 196 199 223 217 207 203 235 260 266 250 241 255 256 259 259 245 260 279 268 232 210 193 285 272 276 114 136 119 119 132 137 147 159 163 164 167
312 311 308 306 307 305 306 307 308 308 308 309 309 308 307 306 307 308 308 309 311 313 314 316 320 325 327 324 274 291 254 250 259 265 266 256 231 162 161 169 184 186 181 189 183 156 169 182 190 179 171 216 193 198 213 192 239 212 218 248 265 266 257 256 255 246 240 235 225 220 258 263 239 160 255 264 128 123 123 119 129 138 145 158 163 165 167 169
313 310 305 302 306 305 304 307 307 307 308 307 307 307 305 305 305 305 306 306 309 310 312 315 315 321 323 305 188 237 258 265 270 265 259 237 203 176 173 180 187 187 181 184 178 172 188 177 176 187 150 215 209 212 209 183 213 206 206 247 246 257 263 244 242 235 224 233 193 185 229 265 297 179 254 274 134 140 122 127 145 145 154 162 163 169 170 174
314 310 303 298 304 305 304 306 306 307 308 306 307 305 304 303 303 303 304 304 305 307 310 309 309 316 309 307 159 220 266 303 321 281 236 212 197 186 187 194 191 190 184 168 186 196 195 168 149 122 159 226 228 234 230 200 218 239 230 294 267 267 280 238 233 232 195 235 195 171 221 272 340 221 230 198 154 148 133 144 156 152 161 163 164 167 170 184
314 311 305 298 301 303 304 305 306 306 307 307 306 304 304 302 301 301 300 301 303 304 306 306 303 288 292 334 221 232 240 114 55 15 304 207 200 198 198 201 200 198 190 176 202 205 194 178 150 133 228 252 308 260 237 218 254 295 337 316 292 340 329 249 234 219 169 197 190 148 302 301 255 234 242 145 158 150 141 155 163 161 165 162 165 165 172 190
313 313 308 303 302 304 305 305 306 306 306 307 305 305 303 300 300 297 297 299 300 300 301 299 286 252 275 265 239 242 244 239 283 307 289 245 217 218 223 218 216 215 204 197 211 208 197 195 178 184 240 202 267 252 198 344 336 305 40 137 294 1 334 265 245 185 162 194 184 132 303 285 260 255 255 135 161 145 148 166 170 165 163 166 168 169 176 185
309 309 307 303 304 305 305 305 306 306 306 307 306 304 301 300 297 293 297 297 295 296 292 280 235 200 163 248 261 263 265 268 273 272 262 246 229 230 245 232 223 222 214 211 219 207 199 200 189 206 252 184 235 271 335 2 12 320 327 79 335 3 280 290 285 161 150 245 168 114 245 265 277 276 159 168 174 151 164 178 174 168 166 175 174 176 183 187
308 306 306 304 303 306 305 305 307 307 308 307 305 305 302 298 293 294 299 293 290 279 257 238 207 179 37 273 276 284 269 263 255 246 240 230 215 220 239 222 217 221 216 217 224 210 194 189 176 197 257 208 93 313 324 350 2 25 352 309 335 213 264 309 322 158 145 276 34 113 214 269 284 291 128 168 180 162 175 183 178 178 174 177 178 182 188 190
308 305 306 305 302 304 306 306 308 308 309 308 308 306 301 298 296 296 290 273 265 236 217 203 198 184 312 278 287 293 249 236 239 237 232 223 214 219 222 202 204 216 216 222 230 238 233 164 178 175 211 191 108 95 35 1 341 8 95 235 294 301 298 322 335 298 155 160 327 135 201 275 277 291 20 144 173 173 181 188 187 182 179 180 180 184 187 188
309 306 306 306 304 304 306 307 309 310 311 311 311 307 303 304 296 283 266 232 209 203 180 165 181 174 257 274 298 293 248 225 227 228 217 213 218 218 193 168 187 197 208 228 238 254 281 9 239 209 72 101 117 102 82 303 292 321 13 272 264 282 310 309 327 319 94 120 270 190 196 248 251 269 335 93 173 188 189 194 195 185 180 179 175 184 189 192
307 306 305 307 304 302 307 309 310 311 313 313 313 310 310 315 285 249 201 170 137 146 186 222 176 157 263 269 259 257 286 224 209 214 204 200 210 211 187 160 157 141 146 256 255 210 201 87 140 129 47 80 112 106 153 217 205 206 247 77 306 323 317 288 289 289 358 10 252 233 235 252 263 277 304 353 167 199 204 195 195 187 178 178 176 186 195 199
306 305 305 308 306 304 307 309 310 313 315 315 318 319 322 46 83 122 146 154 129 125 211 214 184 162 270 261 228 247 304 297 198 203 191 188 197 204 200 182 132 117 117 92 209 196 165 81 91 148 186 180 166 151 175 200 170 167 171 137 154 315 290 262 250 254 264 260 248 234 233 245 259 274 298 338 9 216 204 167 179 197 181 183 183 187 198 203
304 303 306 309 308 308 308 308 311 313 316 319 326 335 7 99 62 117 150 187 212 226 240 196 196 235 297 278 30 347 319 318 194 197 183 183 176 176 201 183 109 109 135 149 191 203 143 159 188 185 194 196 194 181 177 172 141 146 138 113 218 261 285 275 264 277 233 184 245 230 223 243 252 290 332 342 7 353 190 145 171 195 183 194 196 200 207 208
301 304 308 309 309 308 306 308 309 310 314 314 319 333 257 235 83 48 231 232 238 240 257 235 202 237 264 265 337 10 351 319 316 246 185 181 160 149 203 164 128 157 174 161 164 86 122 178 215 210 201 193 186 182 178 147 114 120 157 267 295 246 261 269 260 286 232 162 255 223 204 246 255 24 5 356 22 4 330 185 192 200 192 194 196 206 209 212
303 306 308 309 309 306 307 308 307 307 306 303 302 278 262 262 94 348 326 263 253 231 240 248 223 243 256 263 283 308 324 269 294 300 182 171 151 163 196 122 144 189 175 140 122 73 129 215 232 219 193 157 142 153 148 127 118 108 122 189 276 254 274 289 275 290 284 149 259 165 173 244 305 58 31 18 33 10 350 343 303 263 228 230 215 200 176 180
306 307 309 309 308 308 309 306 305 302 294 289 264 226 256 288 328 327 322 275 276 226 222 236 230 244 251 261 267 247 217 218 237 261 180 162 153 176 159 127 164 170 132 145 150 147 164 245 232 195 143 137 160 137 118 109 102 110 138 186 243 238 280 291 280 302 334 61 180 140 150 291 2 44 36 23 27 24 18 24 25 17 353 323 283 173 160 181
305 308 308 306 308 309 310 308 306 303 297 280 249 242 278 316 321 320 305 218 281 243 212 213 210 234 236 241 226 194 204 213 202 229 178 160 143 154 152 145 156 153 160 164 154 167 212 244 193 138 137 160 184 171 133 137 221 235 197 201 209 197 209 235 273 315 341 359 66 102 69 1 7 23 23 7 13 27 21 25 29 22 11 2 358 5 183 182
306 306 307 308 312 313 312 312 310 316 326 285 259 275 318 322 322 311 235 335 290 267 217 198 192 227 219 203 186 181 191 233 216 203 171 163 153 146 164 147 134 170 192 166 152 194 236 239 120 120 148 163 172 199 172 160 186 279 234 218 211 203 218 240 306 4 28 3 11 85 83 355 332 12 26 1 10 22 19 26 28 19 16 18 8 351 344 73
307 306 309 311 312 317 318 313 315 330 319 279 268 310 325 329 336 245 182 19 289 253 158 166 180 197 188 168 173 165 124 255 225 181 165 167 164 147 153 154 117 181 185 162 159 211 236 197 142 144 157 162 176 215 211 163 145 256 237 218 208 189 189 183 78 55 72 307 331 74 117 170 318 360 10 356 8 19 25 33 28 24 24 23 20 10 15 32
306 305 310 310 312 325 326 305 319 323 302 273 307 318 323 336 354 166 160 18 267 215 147 172 187 174 177 171 161 148 180 230 166 168 170 168 168 133 141 180 149 170 167 129 180 235 183 159 161 161 151 161 181 215 212 159 131 227 240 199 176 169 175 160 105 96 178 222 326 10 102 116 332 332 348 345 12 27 32 36 28 29 28 25 28 27 29 28
303 306 308 309 313 315 302 296 308 300 247 294 320 323 328 336 0 146 100 326 214 151 142 199 192 167 170 160 156 163 224 177 144 203 178 165 167 116 144 191 171 172 166 133 187 249 167 161 181 175 156 170 196 203 185 152 146 240 232 172 166 170 162 142 108 106 105 92 319 315 49 89 300 293 342 349 25 31 28 33 28 27 27 27 29 29 33 32
304 306 303 306 307 300 297 289 272 252 268 305 320 324 326 326 101 113 319 226 180 118 129 138 164 168 146 145 166 192 248 150 168 201 146 158 168 133 168 195 162 165 186 165 195 243 204 187 180 161 158 197 216 196 161 158 188 236 189 122 93 89 95 96 105 115 53 66 222 270 32 104 268 311 351 350 23 22 15 29 28 25 27 30 29 29 32 30
303 301 299 304 302 301 309 281 256 260 285 300 314 321 319 320 93 99 233 235 218 183 103 127 172 161 149 150 171 199 194 136 151 111 109 150 171 149 155 133 114 132 186 201 209 241 278 225 164 155 182 206 212 177 159 178 189 157 129 96 51 42 47 50 66 96 84 35 250 259 49 101 146 313 335 354 30 10 5 30 27 28 32 34 33 33 33 30
300 297 296 296 292 295 305 283 262 259 275 300 315 319 315 103 78 176 207 250 270 233 82 162 187 146 157 164 168 186 186 128 121 130 136 147 155 157 88 81 85 95 153 292 277 288 325 336 199 224 214 193 169 148 167 189 171 108 118 111 84 15 20 29 0 50 103 241 259 249 83 85 109 253 312 49 50 24 23 38 33 36 38 37 39 37 34 31
298 295 293 285 282 275 260 249 242 251 289 311 319 324 102 120 236 221 246 323 349 257 254 177 193 167 165 170 169 172 163 132 144 147 149 143 159 187 145 148 162 129 199 230 261 325 314 243 262 289 237 175 139 144 143 132 100 101 108 97 103 22 21 52 299 80 151 232 236 208 88 68 75 270 12 57 56 37 44 54 48 48 45 42 44 42 38 33
301 299 293 283 277 265 254 252 259 274 297 311 318 26 96 145 226 221 256 317 67 232 291 246 183 169 161 164 174 168 147 153 173 151 150 147 156 196 206 171 160 147 183 203 178 343 307 288 306 315 259 182 143 150 153 149 138 139 137 120 130 124 111 208 263 158 198 229 209 221 169 85 123 190 78 80 69 53 60 60 54 53 49 47 46 45 42 36
303 300 294 287 278 266 260 259 261 269 292 308 336 95 124 205 238 211 219 302 63 326 283 251 145 150 167 171 169 158 143 181 178 137 133 141 145 191 220 225 167 153 145 151 155 165 167 289 267 196 236 188 162 169 163 155 148 163 155 125 138 150 141 191 209 163 189 202 273 291 66 119 192 127 77 92 81 60 57 51 49 49 46 52 52 45 42 36
305 302 297 290 277 265 256 251 250 249 268 306 72 111 197 220 261 220 195 22 66 309 282 262 149 156 184 182 159 160 153 185 178 138 135 161 163 184 192 207 202 159 125 152 203 170 148 230 255 235 228 173 170 183 146 125 111 231 139 101 136 181 144 135 177 171 171 138 15 353 75 87 172 86 47 74 83 64 55 46 45 43 32 34 41 38 38 34
311 310 302 282 271 264 244 230 223 212 213 160 109 187 227 229 252 253 281 37 82 257 282 292 178 161 176 185 175 178 148 120 164 150 146 163 169 185 182 202 199 162 139 156 205 160 127 246 278 281 256 198 172 179 160 143 158 200 117 139 197 170 123 116 176 147 100 115 23 349 120 98 120 94 39 74 90 74 61 51 47 42 33 30 26 23 22 23
314 314 297 272 267 254 203 190 184 180 182 140 150 217 241 247 269 280 299 322 265 249 263 270 196 151 162 182 185 176 149 126 163 159 156 165 178 196 186 225 203 181 178 156 191 204 143 260 289 247 228 254 153 130 74 90 133 122 169 188 163 80 91 107 131 20 50 118 266 341 121 131 154 188 45 83 92 83 67 56 51 43 38 32 24 17 11 9
310 304 284 272 253 204 177 169 165 160 127 115 189 263 251 250 286 296 298 302 289 281 284 195 177 121 154 181 193 168 155 164 178 155 141 152 165 147 160 229 248 204 189 152 152 246 126 306 295 285 227 269 39 67 43 355 63 124 165 165 112 115 147 95 123 130 101 132 89 5 45 133 163 212 125 78 95 100 82 66 59 46 38 31 21 15 7 4
298 289 298 290 183 168 163 159 155 133 68 134 199 255 259 266 281 281 287 300 292 277 265 219 152 103 155 168 166 162 159 168 170 148 118 119 136 102 115 189 217 207 172 149 157 233 108 112 281 304 303 282 30 46 162 270 341 68 76 29 51 136 158 160 144 146 149 154 132 69 8 274 227 238 142 126 125 116 102 80 68 52 40 33 19 11 5 2
272 270 348 86 158 155 151 149 142 74 115 172 198 235 298 312 283 279 288 293 277 229 228 236 100 103 156 130 122 154 154 149 142 130 100 109 108 52 330 194 175 127 147 145 150 192 90 103 235 305 331 41 72 346 200 197 203 88 67 38 14 56 112 142 101 100 130 144 143 129 179 246 252 249 109 94 76 86 86 75 66 53 40 31 16 8 5 2
270 253 13 175 158 148 143 139 108 138 166 223 212 234 303 299 277 286 294 288 257 226 222 158 93 116 135 101 102 140 118 102 102 92 69 87 107 134 234 165 161 147 110 109 110 138 156 128 142 312 0 65 61 302 246 163 149 132 116 127 142 126 120 119 140 304 84 120 154 145 165 219 356 70 89 75 57 62 69 71 67 52 38 27 13 6 3 2
255 153 270 174 158 148 138 103 57 155 183 238 234 266 280 278 276 288 301 299 265 252 0 51 66 83 90 96 109 115 96 71 42 77 95 85 109 170 272 4 59 124 106 113 177 171 144 107 88 43 36 100 252 295 10 93 99 94 84 96 116 121 115 122 180 215 71 81 128 101 122 152 37 57 87 84 71 65 66 73 73 58 42 28 14 7 3 3
215 49 34 166 162 150 65 68 93 344 249 236 269 279 270 269 282 293 305 313 312 357 26 16 358 44 40 53 83 89 92 73 34 65 119 90 51 301 305 351 51 73 82 118 207 90 90 88 85 57 349 331 281 288 5 54 71 70 46 37 60 52 110 135 171 169 114 122 111 76 105 144 70 59 79 85 80 73 64 60 59 53 39 29 18 10 4 2
290 332 54 170 179 193 7 144 153 275 237 261 285 275 267 255 255 267 286 303 317 23 65 15 349 30 25 32 70 66 82 91 44 31 108 108 60 321 341 26 78 75 61 163 171 123 87 83 93 106 60 354 326 320 5 25 38 61 26 346 356 28 80 117 119 85 95 160 134 115 132 137 110 82 70 75 79 74 62 51 47 39 30 24 16 12 8 5
301 139 37 194 203 226 282 175 149 167 237 330 322 286 283 261 241 236 243 290 340 55 94 30 348 45 32 32 58 45 42 86 99 29 75 80 45 341 4 29 60 77 66 101 116 109 101 88 104 128 143 161 188 221 211 59 32 39 12 354 1 22 59 122 120 78 100 157 88 105 141 130 114 91 69 62 68 69 58 44 36 28 26 20 14 15 13 12
355 125 81 216 214 216 242 242 132 140 233 27 325 278 250 239 263 236 213 295 8 33 56 30 12 54 41 43 62 42 29 57 87 91 74 59 34 334 358 23 42 72 81 71 65 84 97 67 53 105 131 172 182 196 206 132 80 43 358 358 4 0 14 93 103 97 154 142 43 47 147 133 121 100 77 63 61 65 59 47 34 20 18 18 18 19 18 17
337 111 137 147 195 221 262 290 276 174 203 114 220 266 242 244 285 306 17 37 16 26 50 31 16 40 50 65 81 51 27 51 64 73 64 47 61 345 354 21 22 24 62 62 31 67 100 56 16 64 74 73 98 85 67 81 84 79 51 17 13 22 43 71 79 63 140 125 74 155 136 121 113 102 88 78 75 73 65 55 43 22 17 24 25 22 21 19
298 273 234 161 174 197 225 262 229 207 239 260 267 279 276 307 38 10 339 15 14 21 65 28 1 21 71 103 109 84 44 54 46 50 61 34 49 19 359 12 9 4 39 54 17 76 104 65 9 76 71 53 56 72 78 85 85 73 64 46 30 41 58 72 69 41 84 121 148 141 119 101 104 105 91 84 79 72 66 59 50 36 27 28 30 26 22 17
97 273 281 346 79 181 193 215 201 194 214 220 240 269 259 25 56 23 339 56 30 8 61 67 2 17 47 68 98 92 76 103 71 37 108 50 52 77 37 16 355 0 38 62 38 78 99 70 64 95 84 57 42 60 81 88 84 64 52 50 49 57 66 73 74 71 73 74 94 109 103 90 94 99 86 78 71 68 69 59 47 40 31 30 33 30 24 18
89 297 321 13 4 213 201 186 150 165 211 212 230 266 254 69 59 44 18 77 98 10 41 85 64 51 60 63 77 80 141 145 126 126 154 118 75 101 123 173 225 7 25 52 39 35 81 125 171 97 83 60 44 67 81 84 82 67 46 36 39 50 56 57 63 75 79 79 85 95 96 90 86 89 85 77 74 76 70 56 47 40 31 33 36 33 27 21
296 290 310 7 311 286 194 180 145 147 228 221 218 263 336 40 79 87 44 32 103 103 93 111 91 60 62 62 67 85 141 124 114 131 153 138 137 165 158 161 151 79 23 38 46 27 74 129 175 71 85 96 94 98 97 92 84 68 46 35 34 39 48 45 39 52 84 113 114 100 94 106 115 107 96 81 72 69 60 51 51 41 29 35 38 33 28 22
323 309 333 94 236 307 185 173 74 105 225 227 207 265 35 276 327 93 75 18 39 71 101 122 99 65 61 59 60 124 182 151 132 146 150 125 113 121 119 113 116 113 107 93 62 39 101 129 147 101 100 137 177 153 102 91 86 64 36 39 47 62 80 65 40 34 43 103 126 110 113 130 128 122 106 85 68 60 53 47 46 35 29 36 36 29 23 18